AirNav   ProFlight Series 2 Aviation Headset
 
 1217 users online  

84MO Holiday Inn Westport Heliport
St Louis, Missouri, USA

GOING TO ST LOUIS?


FAA INFORMATION EFFECTIVE 16 JULY 2020

Location

FAA Identifier: 84MO
Lat/Long: 38-41-38.1870N 090-26-55.4270W
38-41.636450N 090-26.923783W
38.6939408,-90.4487297
(estimated)
Elevation: 600 ft. / 183 m (estimated)
Variation: 02E (1985)
From city: 15 miles NW of ST LOUIS, MO
Time zone: UTC -5 (UTC -6 during Standard Time)
Zip code: 63146

Heliport Operations

Heliport use: Private use. Permission required prior to landing
Activation date: 04/1983
Control tower: no
ARTCC: KANSAS CITY CENTER
FSS: SAINT LOUIS FLIGHT SERVICE STATION
Attendance: DAWN-2300
Wind indicator: no
Segmented circle: yes

Heliport Communications

WX ASOS at STL (5 nm NE): 125.025 (314-890-4790)
WX ASOS at SUS (10 nm W): 134.8 (314-890-7255)
WX ASOS at SET (14 nm N): 118.075 (636-250-4590)
WX ASOS at CPS (16 nm SE): PHONE 618-332-0001

Nearby radio navigation aids

VOR radial/distance  VOR name  Freq  Var
STLr170/10.1ST LOUIS VORTAC117.4001E
FTZr085/24.5FORISTELL VORTAC110.8005E
TOYr260/25.0TROY VORTAC116.0004E

 
NDB name  Hdg/Dist  Freq  Var  ID
EAVES079/4.722701WFZ ..-. --..
CIVIC MEMORIAL238/21.926301WCVM -.-. ...- --

Heliport Services

Runway Information

Helipad H1

Dimensions: 86 x 86 ft. / 26 x 26 m
Surface: asphalt/concrete
Latitude: 38-41.636500N
Longitude: 090-26.923833W
Elevation: 600.0 ft.
Traffic pattern: leftleft

Heliport Ownership and Management from official FAA records

Ownership: Privately-owned
Owner: DOUBLETREE ST. LOUIS AT WESTPORT
1973 CRAIGSHIRE DR.
ST. LOUIS, MO 63146
Phone 573-434-0100
ANITA M. SUMNER, ST. LOUIS HOTEL CORP.
Manager: DAN GOUGH
1973 CRAIGSHIRE DRIVE
ST. LOUIS, MO 63146
Phone 314-434-0100

Additional Remarks

FOR CD CTC ST LOUIS APCH AT 314-890-1018.

Instrument Procedures

There are no published instrument procedures at 84MO.

Some nearby airports with instrument procedures:

1H0 - Creve Coeur Airport (3 nm NW)
KSTL - St Louis Lambert International Airport (5 nm NE)
KSUS - Spirit of St Louis Airport (10 nm W)
KSET - St Charles County Smartt Airport (14 nm N)
KCPS - St Louis Downtown Airport (16 nm SE)
 
Loc | Ops | Rwys | IFR | FBO | Links
Com | Nav | Svcs | Stats | Notes
Area around 84MO (Holiday Inn Westport Heliport)
 
Road maps at: MapQuest Bing Google
 
Aerial photo
No photo
 
Sectional chart

 
Airport distance calculator
Flying to Holiday Inn Westport Heliport? Find the distance to fly.

From to 84MO

Sunrise and sunset
Times for 03-Aug-2020
 Local
(UTC-5)
 Zulu
(UTC)
Morning civil twilight05:3810:38
Sunrise06:0711:07
Sunset20:0901:09
Evening civil twilight20:3801:38

Current date and time
Zulu (UTC)  03-Aug-2020 22:18:21
Local (UTC-5)  03-Aug-2020 17:18:21
 
METAR
KSTL 
5nm NE 
032151Z 35008KT 10SM -RA FEW024 BKN060 BKN150 23/18 A3002 RMK AO2 RAB48 SLP157 P0000 T02280178
KSUS 
10nm W 
032154Z 02008KT 10SM FEW029 OVC055 23/17 A3001 RMK AO2 SLP157 T02280172
KSET 
14nm N 
032154Z AUTO 35011KT 10SM FEW025 SCT070 OVC085 23/17 A3001 RMK AO2 SLP159 T02330172
KCPS 
16nm SE 
032200Z 36016KT 10SM FEW022 SCT032 SCT060 24/19 A3000 RMK AO2 T02390189 PNO $
TAF
KSTL 
5nm NE 
032001Z 0320/0424 34014KT P6SM VCSH OVC022 FM032200 35009KT P6SM OVC035 FM041000 35005KT P6SM BKN022 FM041600 36008KT P6SM SCT080
KSUS 
10nm W 
031912Z 0319/0418 35009KT P6SM BKN035 FM032300 35008KT P6SM SCT045 FM041000 VRB04KT P6SM BKN025 FM041500 35007KT P6SM SCT022
KCPS 
16nm SE 
032000Z 0320/0418 35010G20KT P6SM VCSH BKN040 FM040000 35007KT P6SM BKN045 FM040900 35006KT P6SM BKN022 FM041700 36008KT P6SM SCT070
NOTAMs
Click for the latest NOTAMs
NOTAMs are issued by the DoD/FAA and will open in a separate window not controlled by AirNav.

 

 
 

Would you like to see your business listed on this page?

 If your business provides an interesting product or service to pilots, flight crews, aircraft, or users of the Holiday Inn Westport Heliport, you should consider listing it here.  To start the listing process, click on the button below
 
Add a business
 

Other Pages about Holiday Inn Westport Heliport

Update a link
 
Copyright © AirNav, LLC. All rights reserved. Privacy Policy  Contact